This demonstration page uses our WeatherBlox Daily Observations layout. Learn more.

Left ArrowRight Arrow

Hourly Observations for October 19, 2021

Temp ( °F °C ) Dew Point ( °F °C ) Humidity (%) Winds ( mph kmh ) Pressure ( in mb ) Visibility ( mi km ) Precip ( " mm )
12:15 am 00:15 Clear 57 13.7 43 6.1 60 60 SSE 8 13 29.79 1009 10 16 N/A
12:35 am 00:35 Clear 57 13.9 43 6.1 60 60 SSE 10 17 29.79 1009 10 16 N/A
12:55 am 00:55 Clear 56 13.5 43 6.1 61 61 SSE 10 17 29.78 1009 10 16 N/A
1:15 am 01:15 Clear 56 13.3 43 6.2 62 62 SSE 12 19 29.77 1008 10 16 N/A
1:35 am 01:35 Clear 56 13.1 43 6.2 63 63 SSE 12 19 29.78 1008 10 16 N/A
1:55 am 01:55 Clear 55 13 43 6.3 64 64 SSE 12 19 29.77 1008 10 16 N/A
2:15 am 02:15 Clear 55 12.8 43 6.3 65 65 SSE 12 19 29.77 1008 10 16 N/A
2:35 am 02:35 Clear 55 12.6 44 6.5 67 67 SSE 12 19 29.77 1008 10 16 N/A
2:55 am 02:55 Clear 55 12.5 44 6.5 67 67 SSE 12 19 29.77 1008 10 16 N/A
3:15 am 03:15 Clear 54 12.3 44 6.5 68 68 SSE 12 19 29.76 1008 10 16 N/A
3:35 am 03:35 Clear 54 12.2 44 6.5 68 68 SSE 10 17 29.76 1008 10 16 N/A
3:55 am 03:55 Clear 54 12 44 6.5 69 69 SSE 10 17 29.76 1008 10 16 N/A
4:15 am 04:15 Clear 54 12 44 6.5 69 69 SSE 12 19 29.76 1008 10 16 N/A
4:35 am 04:35 Clear 53 11.6 44 6.5 71 71 SSE 13 20 29.75 1007 10 16 N/A
4:55 am 04:55 Clear 52 11.3 44 6.5 73 73 SSE 9 15 29.75 1007 10 16 N/A
5:15 am 05:15 Clear 52 11 44 6.5 74 74 SSE 9 15 29.76 1008 10 16 N/A
5:35 am 05:35 Clear 51 10.7 44 6.4 75 75 SSE 10 17 29.76 1008 10 16 N/A
5:55 am 05:55 Clear 51 10.5 44 6.5 76 76 SSE 12 19 29.76 1008 10 16 N/A
6:15 am 06:15 Clear 51 10.5 44 6.5 76 76 SSE 10 17 29.76 1008 10 16 N/A
6:35 am 06:35 Clear 50 10 44 6.4 79 79 SSE 7 11 29.77 1008 10 16 N/A
6:55 am 06:55 Clear 49 9.5 43 6.2 80 80 SSE 6 9 29.78 1008 10 16 N/A
7:15 am 07:15 Clear 48 9.1 43 6.2 82 82 SSE 8 13 29.78 1008 10 16 N/A
7:35 am 07:35 Clear 48 9.1 43 6.3 83 83 SSE 6 9 29.77 1008 10 16 N/A
7:55 am 07:55 Sunny 48 9.1 44 6.5 84 84 SSE 7 11 29.78 1008 10 16 N/A
8:15 am 08:15 Sunny 49 9.4 44 6.6 83 83 SSE 7 11 29.78 1008 10 16 N/A
8:35 am 08:35 Sunny 50 10 45 7 82 82 SSE 7 11 29.77 1008 10 16 N/A
8:55 am 08:55 Sunny 52 11.1 45 7.2 77 77 SSE 9 15 29.77 1008 10 16 N/A
9:15 am 09:15 Sunny 54 12 45 7.3 73 73 SSE 14 22 29.77 1008 10 16 N/A
9:35 am 09:35 Sunny 55 12.6 45 7.3 70 70 SSE 13 20 29.76 1008 10 16 N/A
9:55 am 09:55 Sunny 56 13.5 46 7.6 68 68 SSE 12 19 29.75 1008 10 16 N/A
10:15 am 10:15 Sunny 58 14.2 46 7.8 66 66 S 14 22 29.75 1007 10 16 N/A
10:35 am 10:35 Sunny 59 15.1 47 8.1 63 63 S 13 20 29.74 1007 10 16 N/A
10:55 am 10:55 Sunny 61 15.9 47 8.2 60 60 SSE 15 24 29.73 1007 10 16 N/A
11:15 am 11:15 Sunny 62 16.6 47 8.4 59 59 S 14 22 29.73 1007 10 16 N/A
11:35 am 11:35 Sunny 63 17.1 47 8.6 58 58 S 15 24 29.71 1006 10 16 N/A
11:55 am 11:55 Sunny 64 17.8 47 8.5 55 55 S 14 22 29.71 1006 10 16 N/A
12:15 pm 12:15 Sunny 65 18.4 48 8.8 54 54 SSE 13 20 29.70 1006 10 16 N/A
12:35 pm 12:35 Sunny 67 19.3 48 8.7 50 50 SSE 12 19 29.69 1006 10 16 N/A
12:55 pm 12:55 Sunny 68 20 47 8.6 48 48 SSE 13 20 29.68 1005 10 16 N/A
1:15 pm 13:15 Sunny 69 20.7 48 8.7 46 46 SSE 15 24 29.66 1004 10 16 N/A
1:35 pm 13:35 Sunny 71 21.5 47 8.6 44 44 SSE 16 26 29.65 1004 10 16 N/A
1:55 pm 13:55 Sunny 72 22.3 48 8.7 42 42 SSE 21 33 29.63 1003 10 16 N/A
2:15 pm 14:15 Sunny 73 22.7 48 8.7 41 41 SSE 21 33 29.62 1003 10 16 N/A
2:35 pm 14:35 Sunny 73 23 47 8.6 40 40 SSE 15 24 29.61 1003 10 16 N/A
2:55 pm 14:55 Sunny 74 23.5 47 8.4 38 38 SSE 15 24 29.61 1003 10 16 N/A
3:15 pm 15:15 Sunny 74 23.5 48 8.8 39 39 SSE 14 22 29.61 1003 10 16 N/A
3:35 pm 15:35 Sunny 75 23.8 48 9.1 39 39 S 13 20 29.61 1003 10 16 N/A
3:55 pm 15:55 Sunny 75 24.1 48 9.1 39 39 SSE 13 20 29.61 1003 10 16 N/A
4:15 pm 16:15 Sunny 75 24.1 49 9.4 39 39 SSE 16 26 29.60 1003 10 16 N/A
4:35 pm 16:35 Sunny 75 24 49 9.6 40 40 SSE 14 22 29.62 1003 10 16 N/A
4:55 pm 16:55 Sunny 75 24 50 9.8 41 41 SE 18 30 29.61 1003 10 16 N/A
5:15 pm 17:15 Sunny 75 24 50 9.9 41 41 SSE 17 28 29.61 1003 10 16 N/A
5:35 pm 17:35 Sunny 74 23.6 51 10.3 43 43 SSE 15 24 29.61 1003 10 16 N/A
5:55 pm 17:55 Sunny 74 23.1 51 10.5 45 45 SSE 13 20 29.62 1003 10 16 N/A
6:15 pm 18:15 Sunny 73 22.5 51 10.6 47 47 SE 13 20 29.63 1003 10 16 N/A
6:35 pm 18:35 Sunny 71 21.5 51 10.7 50 50 SE 12 19 29.65 1004 10 16 N/A
6:55 pm 18:55 Clear 69 20.7 52 10.9 54 54 SE 12 19 29.65 1004 10 16 N/A
7:15 pm 19:15 Clear 68 20 52 11.1 57 57 SSE 12 19 29.67 1005 10 16 N/A
7:35 pm 19:35 Partly Cloudy 68 20.1 52 11.2 57 57 SE 15 24 29.68 1005 10 16 N/A
7:55 pm 19:55 Partly Cloudy 68 20 52 11.2 57 57 SE 14 22 29.67 1005 10 16 N/A
8:15 pm 20:15 Partly Cloudy 67 19.3 53 11.4 60 60 SSE 12 19 29.69 1006 10 16 N/A
8:35 pm 20:35 Mostly Cloudy with Nearby Thunderstorms 67 19.6 53 11.8 61 61 SW 9 15 29.73 1007 10 16 N/A
8:55 pm 20:55 Cloudy with Nearby Thunderstorms 68 19.9 55 12.7 63 63 W 7 11 29.74 1007 10 16 N/A
9:15 pm 21:15 Cloudy with Rain 64 17.5 56 13.6 78 78 N N/A 29.76 1008 7 11 0.01 0.25
9:35 pm 21:35 Mostly Cloudy with Light Rain 62 16.5 58 14.2 86 86 ESE 8 13 29.74 1007 10 16 0.03 0.76
9:55 pm 21:55 Partly Cloudy with Nearby Thunderstorms 62 16.5 56 13.6 83 83 SE 10 17 29.74 1007 10 16 0.03 0.76
10:15 pm 22:15 Clear 61 16.3 56 13.1 81 81 SE 7 11 29.75 1007 10 16 N/A
10:35 pm 22:35 Clear 61 15.9 55 13 83 83 SW 6 9 29.77 1008 10 16 N/A
10:55 pm 22:55 Clear 58 14.5 54 12.2 86 86 W 6 9 29.79 1009 10 16 N/A
11:15 pm 23:15 Clear 55 12.8 51 10.5 86 86 NW 8 13 29.81 1009 10 16 N/A
11:35 pm 23:35 Clear 54 12 51 10.4 90 90 WNW 9 15 29.83 1010 10 16 N/A
11:55 pm 23:55 Clear 54 12.1 51 10.6 91 91 NW 18 30 29.83 1010 10 16 N/A

Powered by AerisWeather